User: anonymous   Login
Location: NJAA Observatory
(40.6819°N, 74.8979°W)
Time: 21:33:52
(UTC-05:00)
Language:

ALOS - Orbit

View from above orbital plane
View from above orbital plane
View from above satellite
View from above satellite

Ground track
Ground track

The orbit data is extracted from the following two-line orbital elements,

1 28931U 06002A   16042.95735998 +.00000477 +00000-0 +10372-3 0  9993
2 28931 097.9022 087.3712 0002448 080.8327 279.3153 14.62117387535674
Epoch (UTC): 11 February 2016 22:58:35
Eccentricity: 0.0002448
inclination: 97.9022°
perigee height: 684 km
apogee height: 688 km
right ascension of ascending node: 87.3712°
argument of perigee: 80.8327°
revolutions per day: 14.62117387
mean anomaly at epoch: 279.3153°
orbit number at epoch: 53567

The dashed part of the orbit path shows where the satellite is in the earth's shadow,  

DLR